User: anonymous   Login
Location: Columbia
(38.9520°N, 92.3340°W)
Time: 13:17:43
(UTC-06:00)
Language:

CZ-2C R/B - Orbit

View from above orbital plane
View from above orbital plane
View from above satellite
View from above satellite

Ground track
Ground track

The orbit data is extracted from the following two-line orbital elements,

1 28480U 04046B   17018.90442049 +.00000005 +00000-0 +17983-4 0  9992
2 28480 098.1936 124.7523 0140994 305.3969 193.2539 14.25623140632940
Epoch (UTC): 18 January 2017 21:42:21
Eccentricity: 0.0140994
inclination: 98.1936°
perigee height: 705 km
apogee height: 907 km
right ascension of ascending node: 124.7523°
argument of perigee: 305.3969°
revolutions per day: 14.25623140
mean anomaly at epoch: 193.2539°
orbit number at epoch: 63294

The dashed part of the orbit path shows where the satellite is in the earth's shadow,  

DLR